STARLINK-2736, 48640

Orbit data source: Space-Track

STARLINK-2736, 48640 is a payload satellite owned by SpaceX/Seattle (US) in LEO that was launched on Wed, 26 May 2021 UTC via an FALCON 9 launch vehicle from the Air Force Eastern Test Range (AFETR). Payload-class satellites include a variety of spacecraft equipped with specific instruments for various scientific and technological missions. These include communications satellites like Starlink; space stations such as the ISS; scientific satellites like the Hubble; Earth observation satellites from companies like Planet Labs, Umbra, and HawkEye 360; GPS; miniature CubeSats for education and research; and military/defense satellites.

Loading next visibility...
Identifier
48640, 2021-044C
Orbit
LEO
Country
Flag of USUS
Related business
Manufacturer
SpaceX/Seattle
Mission
Operational Commercial Communications
Bus & Motor
STARLINK, Unknown motor
Mass
260 kg wet, ~248 kg dry
Launch date (UTC)
2021-05-26 (5 years ago)
Launch vehicle
FALCON 9
Launch site
Air Force Eastern Test Range (AFETR)
Object type
Payload
Rocket body
Debris
Shape & HBR
Box + 1 Pan, 10.1 m
Radar Cross Section
13.562 m², Large (>1 m²)

Expand to show TLE details & history
Last TLE update: 3 days ago

TLE from 3 days ago
0 STARLINK-2736
1 48640U 21044C   26170.80595134  .00001852  00000-0  71419-4 0  9996
2 48640  53.1608 358.7545 0001104 101.6040 258.5085 15.31707901279467
Epoch: 2026-06-19T19:20Z
TLE epoch observation values (Epoch: 2026-06-19T19:20:34.195Z)
Latitude
-0.00007°
Longitude
160.58232°
Altitude
471.768 km
Speed
7.631 km/s
True Right ascension
23h 55m 01s
True Declination
0° 00' 00"
Sunlit
Object was in daylight at epoch
Visualization orbit readout
Latitude
Unknown
Longitude
Unknown
Altitude
Unknown
Speed
Unknown
Apparent Right ascension
Unknown
Apparent Declination
Unknown
Sunlit
N/A
Visualization observer readout
Local Sidereal Time
21:35:34
Azimuth
Unknown
Elevation
Unknown
Doppler factor
Unknown
Orbital elements
Apogee altitude
471.729 km
Perigee altitude
470.217 km
Semi-major axis
6,849.11 km
Eccentricity
0.00011
Inclination
53.1608°
RAAN
358.7545°
Arg. of periapsis
101.604°
True anomaly
258.4961°
Mean anomaly
258.5085°
Eccentric anomaly
258.5023°
Mean motion
3.82906 °/min
Orbital period
94.02 mins
BSTAR
0.000071419
Loading maneuver chart data...
Computing Atmospheric mass density...

Documentation

Showing up to 5 results
|